When you browse on this site, cookies collect data to enhance your experience and personalize the content and advertising you see.
Visit our Privacy Policy to learn more. By continuing to use the site, you agree to this use of cookies and data.
  • In Switzerland
  • List of Countries
  • For 7 days
  • Water Temperature
  • Weather Map
  • Weather Widgets
  • user-avatar
    Login

    Hourly Weather Clermont-Ferrand

    Today, 19 November, Tuesday

    Time Temperature Precipitation Wind Pressure Humidity
    00:00 +4°C° 0 mm 1 mps 727 mmHg 95%
    01:00 +4°C° 0.1 mm 1 mps 727 mmHg 96%
    02:00 +4°C° 0.1 mm 1 mps 726 mmHg 96%
    03:00 +5°C° 0.1 mm 1 mps 726 mmHg 96%
    04:00 +5°C° 0.1 mm 1 mps 726 mmHg 97%
    05:00 +5°C° 0.1 mm 1 mps 726 mmHg 97%
    06:00 +5°C° 0 mm 1 mps 727 mmHg 98%
    07:00 +5°C° 0 mm 1 mps 727 mmHg 97%
    08:00 +4°C° 0 mm 2 mps 727 mmHg 96%
    09:00 +4°C° 0 mm 2 mps 727 mmHg 95%
    10:00 +5°C° 0 mm 2 mps 727 mmHg 93%
    11:00 +5°C° 0 mm 2 mps 727 mmHg 92%
    12:00 +5°C° 0 mm 2 mps 727 mmHg 91%
    13:00 +5°C° 0 mm 2 mps 726 mmHg 88%
    14:00 +5°C° 0 mm 2 mps 726 mmHg 86%
    15:00 +5°C° 0 mm 2 mps 726 mmHg 84%
    16:00 +5°C° 0 mm 2 mps 726 mmHg 87%
    17:00 +5°C° 0 mm 1 mps 726 mmHg 89%
    18:00 +4°C° 0 mm 1 mps 726 mmHg 92%
    19:00 +4°C° 0 mm 1 mps 726 mmHg 93%
    20:00 +3°C° 0 mm 1 mps 726 mmHg 94%
    21:00 +3°C° 0 mm 1 mps 726 mmHg 96%
    22:00 +2°C° 0 mm 1 mps 726 mmHg 96%
    23:00 +2°C° 0 mm 1 mps 726 mmHg 96%

    Tomorrow, 20 November, Wednesday

    Time Temperature Precipitation Wind Pressure Humidity
    00:00 +2°C° 0 mm 1 mps 726 mmHg 96%
    01:00 +2°C° 0 mm 1 mps 725 mmHg 95%
    02:00 +2°C° 0 mm 1 mps 725 mmHg 94%
    03:00 +1°C° 0 mm 1 mps 724 mmHg 93%
    04:00 +2°C° 0 mm 1 mps 724 mmHg 93%
    05:00 +2°C° 0 mm 1 mps 724 mmHg 93%
    06:00 +2°C° 0 mm 1 mps 723 mmHg 93%
    07:00 +4°C° 0 mm 1 mps 723 mmHg 89%
    08:00 +5°C° 0 mm 1 mps 723 mmHg 86%
    09:00 +7°C° 0 mm 1 mps 723 mmHg 82%
    10:00 +8°C° 0 mm 1 mps 723 mmHg 79%
    11:00 +9°C° 0 mm 2 mps 723 mmHg 75%
    12:00 +12°C° 0 mm 2 mps 722 mmHg 71%
    13:00 +10°C° 0 mm 2 mps 722 mmHg 74%
    14:00 +10°C° 0 mm 2 mps 721 mmHg 76%
    15:00 +10°C° 0 mm 2 mps 721 mmHg 79%
    16:00 +8°C° 0 mm 2 mps 721 mmHg 83%
    17:00 +7°C° 0 mm 2 mps 721 mmHg 87%
    18:00 +5°C° 0 mm 2 mps 721 mmHg 91%
    19:00 +5°C° 0 mm 2 mps 721 mmHg 91%
    20:00 +4°C° 0 mm 2 mps 721 mmHg 91%
    21:00 +4°C° 0 mm 2 mps 721 mmHg 92%
    22:00 +3°C° 0 mm 2 mps 720 mmHg 91%
    23:00 +3°C° 0 mm 2 mps 720 mmHg 91%

    Day after tomorrow, 21 November, Thursday

    Time Temperature Precipitation Wind Pressure Humidity
    00:00 +3°C° 0 mm 2 mps 720 mmHg 91%
    01:00 +3°C° 0 mm 2 mps 720 mmHg 91%
    02:00 +3°C° 0 mm 2 mps 720 mmHg 91%
    03:00 +3°C° 0 mm 2 mps 720 mmHg 91%
    04:00 +3°C° 0 mm 2 mps 720 mmHg 91%
    05:00 +4°C° 0 mm 1 mps 719 mmHg 91%
    06:00 +4°C° 0 mm 1 mps 719 mmHg 91%
    07:00 +6°C° 0 mm 1 mps 719 mmHg 88%
    08:00 +7°C° 0 mm 1 mps 720 mmHg 85%
    09:00 +8°C° 0 mm 1 mps 720 mmHg 83%
    10:00 +7°C° 0.1 mm 2 mps 720 mmHg 82%
    11:00 +8°C° 0.1 mm 2 mps 720 mmHg 82%
    12:00 +8°C° 0.1 mm 2 mps 720 mmHg 82%
    13:00 +8°C° 0.4 mm 2 mps 719 mmHg 84%
    14:00 +7°C° 0.4 mm 2 mps 719 mmHg 86%
    15:00 +7°C° 0.4 mm 2 mps 719 mmHg 89%
    16:00 +6°C° 0 mm 2 mps 719 mmHg 90%
    17:00 +5°C° 0 mm 2 mps 720 mmHg 91%
    18:00 +4°C° 0 mm 2 mps 720 mmHg 92%
    19:00 +4°C° 0 mm 2 mps 720 mmHg 92%
    20:00 +4°C° 0 mm 2 mps 720 mmHg 92%
    21:00 +3°C° 0 mm 2 mps 720 mmHg 92%
    22:00 +3°C° 0 mm 2 mps 720 mmHg 92%
    23:00 +3°C° 0 mm 2 mps 720 mmHg 92%

    22 November, Friday

    Time Temperature Precipitation Wind Pressure Humidity
    00:00 +3°C° 0 mm 2 mps 720 mmHg 92%
    01:00 +3°C° 0 mm 2 mps 720 mmHg 92%
    02:00 +3°C° 0 mm 2 mps 719 mmHg 92%
    03:00 +2°C° 0 mm 2 mps 719 mmHg 92%
    04:00 +2°C° 0 mm 2 mps 719 mmHg 92%
    05:00 +3°C° 0 mm 2 mps 718 mmHg 91%
    06:00 +3°C° 0 mm 2 mps 718 mmHg 91%
    07:00 +3°C° 0 mm 3 mps 718 mmHg 88%
    08:00 +4°C° 0 mm 3 mps 717 mmHg 85%
    09:00 +6°C° 0 mm 4 mps 717 mmHg 82%
    10:00 +7°C° 0 mm 5 mps 716 mmHg 79%
    11:00 +8°C° 0 mm 6 mps 715 mmHg 76%
    12:00 +9°C° 0 mm 7 mps 714 mmHg 72%
    13:00 +9°C° 0 mm 6 mps 714 mmHg 74%
    14:00 +9°C° 0 mm 6 mps 713 mmHg 75%
    15:00 +9°C° 0 mm 6 mps 712 mmHg 76%
    16:00 +9°C° 0 mm 6 mps 711 mmHg 76%
    17:00 +9°C° 0 mm 6 mps 711 mmHg 76%
    18:00 +9°C° 0 mm 6 mps 711 mmHg 77%
    19:00 +9°C° 0 mm 6 mps 711 mmHg 78%
    20:00 +9°C° 0 mm 6 mps 710 mmHg 79%
    21:00 +9°C° 0 mm 5 mps 710 mmHg 80%
    22:00 +9°C° 0.1 mm 5 mps 710 mmHg 81%
    23:00 +10°C° 0.1 mm 4 mps 710 mmHg 82%

    23 November, Saturday

    Time Temperature Precipitation Wind Pressure Humidity
    00:00 +10°C° 0.1 mm 4 mps 710 mmHg 84%
    01:00 +9°C° 2.2 mm 3 mps 709 mmHg 88%
    02:00 +9°C° 2.2 mm 2 mps 709 mmHg 91%
    03:00 +9°C° 2.2 mm 2 mps 709 mmHg 95%
    04:00 +8°C° 5.8 mm 2 mps 709 mmHg 95%
    05:00 +7°C° 5.8 mm 2 mps 709 mmHg 96%
    06:00 +7°C° 5.8 mm 2 mps 709 mmHg 96%
    07:00 +7°C° 2.5 mm 2 mps 710 mmHg 96%
    08:00 +7°C° 2.5 mm 2 mps 711 mmHg 96%
    09:00 +7°C° 2.5 mm 2 mps 711 mmHg 96%
    10:00 +7°C° 0.6 mm 2 mps 712 mmHg 94%
    11:00 +7°C° 0.6 mm 2 mps 712 mmHg 92%
    12:00 +7°C° 0.6 mm 2 mps 712 mmHg 91%
    13:00 +9°C° 0 mm 1 mps 713 mmHg 90%
    14:00 +9°C° 0 mm 1 mps 713 mmHg 90%
    15:00 +9°C° 0 mm 1 mps 713 mmHg 89%
    16:00 +8°C° 0 mm 1 mps 714 mmHg 90%
    17:00 +8°C° 0 mm 1 mps 715 mmHg 91%
    18:00 +7°C° 0 mm 1 mps 715 mmHg 93%
    19:00 +7°C° 0 mm 1 mps 716 mmHg 93%
    20:00 +7°C° 0 mm 1 mps 716 mmHg 93%
    21:00 +6°C° 0 mm 1 mps 717 mmHg 93%
    22:00 +7°C° 0 mm 1 mps 717 mmHg 92%
    23:00 +7°C° 0 mm 1 mps 718 mmHg 92%

    24 November, Sunday

    Time Temperature Precipitation Wind Pressure Humidity
    00:00 +7°C° 0 mm 1 mps 718 mmHg 91%
    01:00 +6°C° 0 mm 1 mps 718 mmHg 92%
    02:00 +6°C° 0 mm 1 mps 719 mmHg 92%
    03:00 +6°C° 0 mm 1 mps 719 mmHg 92%
    04:00 +6°C° 0 mm 1 mps 719 mmHg 92%
    05:00 +6°C° 0 mm 1 mps 720 mmHg 92%
    06:00 +6°C° 0 mm 1 mps 720 mmHg 92%
    07:00 +7°C° 0 mm 1 mps 721 mmHg 90%
    08:00 +8°C° 0 mm 1 mps 721 mmHg 89%
    09:00 +8°C° 0 mm 1 mps 722 mmHg 87%
    10:00 +9°C° 0 mm 1 mps 722 mmHg 85%
    11:00 +10°C° 0 mm 1 mps 723 mmHg 83%
    12:00 +11°C° 0 mm 1 mps 723 mmHg 81%
    13:00 +11°C° 0 mm 1 mps 723 mmHg 83%
    14:00 +11°C° 0 mm 1 mps 723 mmHg 85%
    15:00 +10°C° 0 mm 1 mps 723 mmHg 86%
    16:00 +9°C° 0 mm 1 mps 723 mmHg 88%
    17:00 +8°C° 0 mm 1 mps 724 mmHg 91%
    18:00 +7°C° 0 mm 1 mps 724 mmHg 93%
    19:00 +7°C° 0 mm 1 mps 724 mmHg 93%
    20:00 +7°C° 0 mm 1 mps 724 mmHg 93%
    21:00 +7°C° 0 mm 1 mps 724 mmHg 93%
    22:00 +7°C° 0 mm 1 mps 724 mmHg 93%
    23:00 +7°C° 0 mm 1 mps 724 mmHg 93%
    Show more